Regional Weather Roundup
Issued by NWS

Home | Current Version | Previous Version | Graphics & Text | Print | Product List | Glossary On
Versions: 1 2 3 4 5 6 7 8 9 10 11 12 13 14 15 16 17 18 19 20 21 22 23 24 25 26 27 28 29 30 31 32 33 34 35 36 37 38 39 40 41 42 43 44 45 46 47 48 49 50
000
ASUS43 KOAX 191502
RWRNE

WEATHER ROUNDUP FOR NEBRASKA
NATIONAL WEATHER SERVICE OMAHA NE
900 AM CST FRI DEC 19 2014

NOTES: SATELLITE DATA IS BEING USED TO AUGMENT CLOUD COVER ABOVE
       12000 FEET.
       "FAIR" INDICATES FEW OR NO CLOUDS BELOW 12,000 FEET WITH NO
       SIGNIFICANT WEATHER AND/OR OBSTRUCTIONS TO VISIBILITY.

  * THESE STATIONS DO NOT REPORT WEATHER SUCH AS RAIN...SNOW OR FOG.

NEZ001>004-019>022-054>056-191600-
NEBRASKA PANHANDLE

CITY           SKY/WX    TMP DP  RH WIND       PRES   REMARKS
SCOTTSBLUFF    PTCLDY     7   5  91 CALM      30.06F FOG
ALLIANCE       PTCLDY     5   3  91 W9        30.04S WCI  -9
CHADRON        PTCLDY    15   9  76 CALM      30.04S
SIDNEY         PTCLDY    21  12  68 W13       30.07S WCI   9
$$

NEZ057>060-069>072-079>082-191600-
SOUTHWEST NEBRASKA

CITY           SKY/WX    TMP DP  RH WIND       PRES   REMARKS
NORTH PLATTE   PTCLDY    15  10  80 CALM      30.10S
IMPERIAL       PTCLDY    14   9  80 CALM      30.10F
MCCOOK         CLEAR     19  17  92 W6        30.13R FOG     WCI  11
$$

NEZ005>010-023>029-035>040-094-191600-
NORTH CENTRAL NEBRASKA

CITY           SKY/WX    TMP DP  RH WIND       PRES   REMARKS
VALENTINE      CLEAR     14  11  87 SW8       30.04S WCI   3
BROKEN BOW     FOG       22  21  96 SW5       30.10R VSB 1/2 WCI  16
$$

NEZ041-046>049-061>064-073>077-083>087-191600-
SOUTH CENTRAL NEBRASKA

CITY           SKY/WX    TMP DP  RH WIND       PRES   REMARKS
GRAND ISLAND   CLOUDY    31  28  89 SW6       30.16R WCI  25
HASTINGS       CLOUDY    30  27  88 SW8       30.15R WCI  22
KEARNEY *      CLOUDY    27  25  93 S7        30.14S VSB 1/4 WCI  19
$$

NEZ011>018-030>034-042>045-191600-
NORTHEAST NEBRASKA

CITY           SKY/WX    TMP DP  RH WIND       PRES   REMARKS
NORFOLK        CLOUDY    29  26  89 S9        30.15S WCI  20
COLUMBUS *     CLOUDY    30  25  80 S7        30.19R WCI  23
TEKAMAH        CLOUDY    31  29  92 SE6       30.21F FOG     WCI  25
$$

NEZ050>053-065>068-078-088>093-191600-
SOUTHEAST NEBRASKA

CITY           SKY/WX    TMP DP  RH WIND       PRES   REMARKS
LINCOLN        CLOUDY    32  28  85 S7        30.22R FOG     WCI  26
OMAHA EPPLEY   CLOUDY    30  28  93 SE8       30.24S FOG     WCI  23
FALLS CITY     CLOUDY    29  26  89 SE6       30.26R WCI  23
$$

NEZ044-045-051>053-067-191600-
OMAHA AREA

CITY           SKY/WX    TMP DP  RH WIND       PRES   REMARKS
OMAHA EPPLEY   CLOUDY    30  28  93 SE8       30.24S FOG     WCI  23
$$



USA.gov is the U.S. government's official web portal to all federal, state and local government web resources and services.